| time (UTC) | temp F | wind direction | speed MPH | gust MPH | rain 1hr in | rain 24hr in | rain mn in | humidity % | barometer mb |
| 20260906060819 | 85 | 0 | 1.0 | 2.0 | 0.00 | 0.00 | 0.00 | ||
| 20260906060321 | 85 | 0 | 0.0 | 2.0 | 0.00 | 0.00 | 0.00 | ||
| 20260906055824 | 86 | 0 | 1.0 | 2.0 | 0.00 | 0.00 | 0.00 | ||
| 20260906055326 | 86 | 0 | 0.0 | 3.0 | 0.00 | 0.00 | 0.00 | ||
| 20260906054826 | 86 | 0 | 0.0 | 3.0 | 0.00 | 0.00 | 0.00 | ||
| 20260906054329 | 86 | 0 | 0.0 | 0.0 | 0.00 | 0.00 | 0.00 | ||
| 20260906053326 | 87 | 0 | 0.0 | 0.0 | 0.00 | 0.00 | 0.00 | ||
| 20260906052828 | 87 | 0 | 0.0 | 3.0 | 0.00 | 0.00 | 0.00 | ||
| 20260906052332 | 87 | 0 | 0.0 | 3.0 | 0.00 | 0.00 | 0.00 | ||
| 20260906051337 | 88 | 0 | 1.0 | 3.0 | 0.00 | 0.00 | 0.00 | ||
| 20260906050831 | 88 | 0 | 1.0 | 3.0 | 0.00 | 0.00 | 0.00 | ||
| 20260906050331 | 88 | 0 | 0.0 | 3.0 | 0.00 | 0.00 | 0.00 | ||
| 20260906045816 | 88 | 0 | 1.0 | 3.0 | 0.00 | 0.00 | 0.00 | ||
| 20260906045320 | 88 | 0 | 1.0 | 2.0 | 0.00 | 0.00 | 0.00 | ||
| 20260906044824 | 89 | 0 | 1.0 | 4.0 | 0.00 | 0.00 | 0.00 | ||
| 20260906044345 | 89 | 0 | 1.0 | 5.0 | 0.00 | 0.00 | 0.00 | ||
| 20260906043322 | 89 | 0 | 1.0 | 4.0 | 0.00 | 0.00 | 0.00 | ||
| 20260906042822 | 89 | 0 | 1.0 | 4.0 | 0.00 | 0.00 | 0.00 | ||
| 20260906042323 | 89 | 0 | 1.0 | 4.0 | 0.00 | 0.00 | 0.00 | ||
| 20260906041827 | 89 | 0 | 2.0 | 4.0 | 0.00 | 0.00 | 0.00 | ||
| 20260906040828 | 89 | 0 | 2.0 | 6.0 | 0.00 | 0.00 | 0.00 | ||
| 20260906040331 | 90 | 0 | 1.0 | 4.0 | 0.00 | 0.00 | 0.00 | ||
| 20260906035830 | 90 | 0 | 2.0 | 5.0 | 0.00 | 0.00 | 0.00 | ||
| 20260906035332 | 90 | 0 | 2.0 | 5.0 | 0.00 | 0.00 | 0.00 | ||
| 20260906034816 | 90 | 0 | 2.0 | 6.0 | 0.00 | 0.00 | 0.00 | ||
| 20260906034338 | 90 | 356 | 4.0 | 6.0 | 0.00 | 0.00 | 0.00 | ||
| 20260906033828 | 90 | 0 | 2.0 | 6.0 | 0.00 | 0.00 | 0.00 | ||
| 20260906032835 | 90 | 0 | 3.0 | 7.0 | 0.00 | 0.00 | 0.00 | ||
| 20260906032335 | 90 | 0 | 2.0 | 7.0 | 0.00 | 0.00 | 0.00 | ||
| 20260906031817 | 91 | 0 | 2.0 | 7.0 | 0.00 | 0.00 | 0.00 | ||
| 20260906031340 | 91 | 0 | 2.0 | 8.0 | 0.00 | 0.00 | 0.00 | ||
| 20260906030335 | 91 | 0 | 2.0 | 8.0 | 0.00 | 0.00 | 0.00 | ||
| 20260906025817 | 91 | 0 | 2.0 | 8.0 | 0.00 | 0.00 | 0.00 | ||
| 20260906025318 | 91 | 0 | 3.0 | 8.0 | 0.00 | 0.00 | 0.00 | ||
| 20260906024821 | 91 | 0 | 3.0 | 9.0 | 0.00 | 0.00 | 0.00 | ||
| 20260906024342 | 92 | 0 | 5.0 | 11.0 | 0.00 | 0.00 | 0.00 | ||
| 20260906023822 | 92 | 0 | 5.0 | 11.0 | 0.00 | 0.00 | 0.00 | ||
| 20260906022828 | 92 | 0 | 3.0 | 11.0 | 0.00 | 0.00 | 0.00 | ||
| 20260906022328 | 93 | 357 | 6.0 | 11.0 | 0.00 | 0.00 | 0.00 | ||
| 20260906021828 | 93 | 0 | 7.0 | 10.0 | 0.00 | 0.00 | 0.00 | ||
| 20260906020825 | 93 | 0 | 5.0 | 15.0 | 0.00 | 0.00 | 0.00 | ||
| 20260906015827 | 94 | 0 | 7.0 | 14.0 | 0.00 | 0.00 | 0.00 | ||
| 20260906015327 | 94 | 359 | 5.0 | 15.0 | 0.00 | 0.00 | 0.00 | ||
| 20260906014828 | 94 | 0 | 8.0 | 19.0 | 0.00 | 0.00 | 0.00 | ||
| 20260906014331 | 95 | 359 | 7.0 | 19.0 | 0.00 | 0.00 | 0.00 | ||
| 20260906013825 | 95 | 0 | 10.0 | 17.0 | 0.00 | 0.00 | 0.00 | ||
| 20260906013326 | 95 | 359 | 6.0 | 18.0 | 0.00 | 0.00 | 0.00 | ||
| 20260906012827 | 96 | 0 | 11.0 | 19.0 | 0.00 | 0.00 | 0.00 | ||
| 20260906012327 | 96 | 349 | 11.0 | 20.0 | 0.00 | 0.00 | 0.00 | ||
| 20260906011830 | 96 | 0 | 12.0 | 20.0 | 0.00 | 0.00 | 0.00 | ||
| 20260906011331 | 97 | 357 | 12.0 | 19.0 | 0.00 | 0.00 | 0.00 | ||
| 20260906010822 | 97 | 0 | 8.0 | 21.0 | 0.00 | 0.00 | 0.00 | ||
| 20260906010322 | 97 | 357 | 11.0 | 21.0 | 0.00 | 0.00 | 0.00 | ||
| 20260906005822 | 97 | 0 | 11.0 | 18.0 | 0.00 | 0.00 | 0.00 | ||
| 20260906005322 | 98 | 354 | 8.0 | 19.0 | 0.00 | 0.00 | 0.00 | ||
| 20260906004842 | 98 | 359 | 9.0 | 22.0 | 0.00 | 0.00 | 0.00 | ||
| 20260906004333 | 98 | 359 | 12.0 | 22.0 | 0.00 | 0.00 | 0.00 | ||
| 20260906003816 | 97 | 0 | 9.0 | 17.0 | 0.00 | 0.00 | 0.00 | ||
| 20260906003317 | 97 | 359 | 7.0 | 19.0 | 0.00 | 0.00 | 0.00 | ||
| 20260906002820 | 97 | 0 | 13.0 | 19.0 | 0.00 | 0.00 | 0.00 | ||
| 20260906001825 | 97 | 0 | 7.0 | 17.0 | 0.00 | 0.00 | 0.00 | ||
| 20260906000822 | 97 | 347 | 9.0 | 20.0 | 0.00 | 0.00 | 0.00 | ||
| 20260906000329 | 97 | 0 | 8.0 | 18.0 | 0.00 | 0.00 | 0.00 | ||
| 20260905235829 | 97 | 0 | 8.0 | 19.0 | 0.00 | 0.00 | 0.00 | ||
| 20260905235330 | 97 | 0 | 6.0 | 19.0 | 0.00 | 0.00 | 0.00 | ||
| 20260905234334 | 97 | 0 | 8.0 | 20.0 | 0.00 | 0.00 | 0.00 | ||
| 20260905233827 | 97 | 0 | 5.0 | 17.0 | 0.00 | 0.00 | 0.00 | ||
| 20260905233329 | 97 | 0 | 9.0 | 18.0 | 0.00 | 0.00 | 0.00 | ||
| 20260905232332 | 97 | 358 | 8.0 | 22.0 | 0.00 | 0.00 | 0.00 | ||
| 20260905231834 | 97 | 359 | 12.0 | 23.0 | 0.00 | 0.00 | 0.00 | ||
| 20260905231335 | 98 | 358 | 7.0 | 15.0 | 0.00 | 0.00 | 0.00 | ||
| 20260905230329 | 98 | 0 | 9.0 | 22.0 | 0.00 | 0.00 | 0.00 | ||
| 20260905225830 | 98 | 0 | 10.0 | 20.0 | 0.00 | 0.00 | 0.00 | ||
| 20260905224835 | 98 | 359 | 14.0 | 24.0 | 0.00 | 0.00 | 0.00 | ||
| 20260905224339 | 98 | 0 | 7.0 | 18.0 | 0.00 | 0.00 | 0.00 | ||
| 20260905223817 | 98 | 0 | 5.0 | 18.0 | 0.00 | 0.00 | 0.00 | ||
| 20260905222820 | 97 | 354 | 7.0 | 17.0 | 0.00 | 0.00 | 0.00 | ||
| 20260905222321 | 97 | 359 | 10.0 | 21.0 | 0.00 | 0.00 | 0.00 | ||
| 20260905221821 | 97 | 0 | 10.0 | 21.0 | 0.00 | 0.00 | 0.00 | ||
| 20260905221343 | 97 | 0 | 12.0 | 20.0 | 0.00 | 0.00 | 0.00 | ||
| 20260905220317 | 97 | 357 | 11.0 | 23.0 | 0.00 | 0.00 | 0.00 | ||
| 20260905215819 | 97 | 0 | 10.0 | 19.0 | 0.00 | 0.00 | 0.00 | ||
| 20260905215320 | 97 | 359 | 12.0 | 22.0 | 0.00 | 0.00 | 0.00 | ||
| 20260905214820 | 97 | 358 | 12.0 | 23.0 | 0.00 | 0.00 | 0.00 | ||
| 20260905214342 | 97 | 356 | 12.0 | 26.0 | 0.00 | 0.00 | 0.00 | ||
| 20260905213835 | 97 | 359 | 15.0 | 26.0 | 0.00 | 0.00 | 0.00 | ||
| 20260905213317 | 97 | 0 | 13.0 | 26.0 | 0.00 | 0.00 | 0.00 | ||
| 20260905212825 | 98 | 359 | 12.0 | 26.0 | 0.00 | 0.00 | 0.00 | ||
| 20260905212325 | 98 | 358 | 15.0 | 24.0 | 0.00 | 0.00 | 0.00 | ||
| 20260905211825 | 98 | 358 | 13.0 | 28.0 | 0.00 | 0.00 | 0.00 | ||
| 20260905211327 | 98 | 358 | 10.0 | 28.0 | 0.00 | 0.00 | 0.00 | ||
| 20260905210819 | 98 | 0 | 8.0 | 18.0 | 0.00 | 0.00 | 0.00 | ||
| 20260905210323 | 98 | 355 | 10.0 | 22.0 | 0.00 | 0.00 | 0.00 | ||
| 20260905205825 | 98 | 0 | 11.0 | 22.0 | 0.00 | 0.00 | 0.00 | ||
| 20260905205323 | 98 | 352 | 10.0 | 21.0 | 0.00 | 0.00 | 0.00 | ||
| 20260905204824 | 98 | 359 | 6.0 | 25.0 | 0.00 | 0.00 | 0.00 | ||
| 20260905204344 | 98 | 357 | 11.0 | 25.0 | 0.00 | 0.00 | 0.00 | ||
| 20260905203817 | 98 | 0 | 8.0 | 14.0 | 0.00 | 0.00 | 0.00 | ||
| 20260905203319 | 98 | 0 | 6.0 | 16.0 | 0.00 | 0.00 | 0.00 | ||
| 20260905202821 | 98 | 0 | 10.0 | 16.0 | 0.00 | 0.00 | 0.00 | ||
| 20260905202326 | 98 | 0 | 7.0 | 14.0 | 0.00 | 0.00 | 0.00 | ||
| 20260905201825 | 97 | 359 | 8.0 | 13.0 | 0.00 | 0.00 | 0.00 | ||
| 20260905200822 | 97 | 0 | 6.0 | 13.0 | 0.00 | 0.00 | 0.00 | ||
| 20260905195826 | 96 | 349 | 5.0 | 17.0 | 0.00 | 0.00 | 0.00 | ||
| 20260905194336 | 96 | 0 | 8.0 | 17.0 | 0.00 | 0.00 | 0.00 | ||
| 20260905193830 | 96 | 0 | 8.0 | 14.0 | 0.00 | 0.00 | 0.00 | ||
| 20260905193332 | 95 | 0 | 4.0 | 15.0 | 0.00 | 0.00 | 0.00 | ||
| 20260905192833 | 95 | 0 | 6.0 | 12.0 | 0.00 | 0.00 | 0.00 | ||
| 20260905192333 | 95 | 359 | 5.0 | 13.0 | 0.00 | 0.00 | 0.00 | ||
| 20260905191834 | 94 | 359 | 5.0 | 14.0 | 0.00 | 0.00 | 0.00 | ||
| 20260905191335 | 94 | 0 | 7.0 | 18.0 | 0.00 | 0.00 | 0.00 | ||
| 20260905190826 | 93 | 357 | 7.0 | 18.0 | 0.00 | 0.00 | 0.00 | ||
| 20260905190328 | 93 | 0 | 3.0 | 11.0 | 0.00 | 0.00 | 0.00 | ||
| 20260905185833 | 93 | 4 | 6.0 | 15.0 | 0.00 | 0.00 | 0.00 | ||
| 20260905185335 | 92 | 0 | 9.0 | 15.0 | 0.00 | 0.00 | 0.00 | ||
| 20260905184836 | 92 | 351 | 5.0 | 15.0 | 0.00 | 0.00 | 0.00 | ||
| 20260905184339 | 92 | 0 | 5.0 | 15.0 | 0.00 | 0.00 | 0.00 | ||
| 20260905183830 | 91 | 357 | 8.0 | 15.0 | 0.00 | 0.00 | 0.00 | ||
| 20260905183333 | 91 | 0 | 7.0 | 15.0 | 0.00 | 0.00 | 0.00 | ||
| 20260905182816 | 91 | 0 | 8.0 | 15.0 | 0.00 | 0.00 | 0.00 | ||
| 20260905182318 | 90 | 0 | 6.0 | 15.0 | 0.00 | 0.00 | 0.00 | ||
| 20260905181819 | 90 | 0 | 8.0 | 16.0 | 0.00 | 0.00 | 0.00 | ||
| 20260905181339 | 90 | 358 | 7.0 | 16.0 | 0.00 | 0.00 | 0.00 | ||
| 20260905180831 | 90 | 0 | 8.0 | 12.0 | 0.00 | 0.00 | 0.00 | ||
| 20260905180332 | 90 | 359 | 8.0 | 11.0 | 0.00 | 0.00 | 0.00 | ||
| 20260905175818 | 89 | 358 | 6.0 | 12.0 | 0.00 | 0.00 | 0.00 | ||
| 20260905175320 | 89 | 0 | 5.0 | 12.0 | 0.00 | 0.00 | 0.00 | ||
| 20260905174821 | 89 | 0 | 6.0 | 10.0 | 0.00 | 0.00 | 0.00 | ||
| 20260905174324 | 88 | 357 | 3.0 | 11.0 | 0.00 | 0.00 | 0.00 | ||
| 20260905173819 | 88 | 351 | 5.0 | 11.0 | 0.00 | 0.00 | 0.00 | ||
| 20260905173320 | 87 | 356 | 5.0 | 10.0 | 0.00 | 0.00 | 0.00 | ||
| 20260905172822 | 87 | 1 | 6.0 | 11.0 | 0.00 | 0.00 | 0.00 | ||
| 20260905172323 | 86 | 0 | 5.0 | 11.0 | 0.00 | 0.00 | 0.00 | ||
| 20260905171823 | 86 | 359 | 6.0 | 10.0 | 0.00 | 0.00 | 0.00 | ||
| 20260905171345 | 86 | 0 | 4.0 | 11.0 | 0.00 | 0.00 | 0.00 | ||
| 20260905170817 | 85 | 2 | 4.0 | 12.0 | 0.00 | 0.00 | 0.00 | ||
| 20260905170317 | 85 | 357 | 6.0 | 12.0 | 0.00 | 0.00 | 0.00 | ||
| 20260905165819 | 85 | 0 | 5.0 | 10.0 | 0.00 | 0.00 | 0.00 | ||
| 20260905165323 | 84 | 0 | 3.0 | 12.0 | 0.00 | 0.00 | 0.00 | ||
| 20260905164327 | 83 | 356 | 4.0 | 11.0 | 0.00 | 0.00 | 0.00 | ||
| 20260905163822 | 83 | 354 | 6.0 | 11.0 | 0.00 | 0.00 | 0.00 | ||
| 20260905163324 | 82 | 348 | 5.0 | 10.0 | 0.00 | 0.00 | 0.00 | ||
| 20260905162331 | 82 | 0 | 4.0 | 11.0 | 0.00 | 0.00 | 0.00 | ||
| 20260905161832 | 81 | 352 | 4.0 | 8.0 | 0.00 | 0.00 | 0.00 | ||
| 20260905160829 | 80 | 357 | 6.0 | 11.0 | 0.00 | 0.00 | 0.00 | ||
| 20260905160331 | 80 | 12 | 5.0 | 9.0 | 0.00 | 0.00 | 0.00 | ||
| 20260905155831 | 80 | 0 | 2.0 | 8.0 | 0.00 | 0.00 | 0.00 | ||
| 20260905154343 | 78 | 350 | 2.0 | 6.0 | 0.00 | 0.00 | 0.00 | ||
| 20260905153835 | 78 | 345 | 2.0 | 6.0 | 0.00 | 0.00 | 0.00 | ||
| 20260905152818 | 77 | 357 | 3.0 | 6.0 | 0.00 | 0.00 | 0.00 | ||
| 20260905152323 | 76 | 5 | 1.0 | 5.0 | 0.00 | 0.00 | 0.00 | ||
| 20260905151825 | 76 | 3 | 2.0 | 5.0 | 0.00 | 0.00 | 0.00 | ||
| 20260905151345 | 76 | 354 | 2.0 | 4.0 | 0.00 | 0.00 | 0.00 | ||
| 20260905150837 | 75 | 349 | 2.0 | 4.0 | 0.00 | 0.00 | 0.00 | ||
| 20260905150318 | 75 | 0 | 2.0 | 4.0 | 0.00 | 0.00 | 0.00 | ||
| 20260905145820 | 74 | 358 | 1.0 | 2.0 | 0.00 | 0.00 | 0.00 | ||
| 20260905145321 | 74 | 0 | 0.0 | 1.0 | 0.00 | 0.00 | 0.00 | ||
| 20260905144823 | 74 | 0 | 0.0 | 1.0 | 0.00 | 0.00 | 0.00 | ||
| 20260905144344 | 73 | 0 | 0.0 | 1.0 | 0.00 | 0.00 | 0.00 | ||
| 20260905143836 | 73 | 0 | 0.0 | 2.0 | 0.00 | 0.00 | 0.00 | ||
| 20260905143336 | 73 | 0 | 0.0 | 2.0 | 0.00 | 0.00 | 0.00 | ||
| 20260905142815 | 73 | 0 | 0.0 | 1.0 | 0.00 | 0.00 | 0.00 | ||
| 20260905142318 | 72 | 320 | 0.0 | 1.0 | 0.00 | 0.00 | 0.00 | ||
| 20260905141822 | 72 | 0 | 0.0 | 2.0 | 0.00 | 0.00 | 0.00 | ||
| 20260905140818 | 72 | 0 | 1.0 | 2.0 | 0.00 | 0.00 | 0.00 | ||
| 20260905135825 | 71 | 28 | 0.0 | 2.0 | 0.00 | 0.00 | 0.00 | ||
| 20260905134833 | 71 | 0 | 0.0 | 1.0 | 0.00 | 0.00 | 0.00 | ||
| 20260905134338 | 71 | 0 | 0.0 | 1.0 | 0.00 | 0.00 | 0.00 | ||
| 20260905133830 | 71 | 0 | 0.0 | 1.0 | 0.00 | 0.00 | 0.00 | ||
| 20260905133330 | 71 | 0 | 0.0 | 0.0 | 0.00 | 0.00 | 0.00 | ||
| 20260905132831 | 71 | 0 | 0.0 | 0.0 | 0.00 | 0.00 | 0.00 | ||
| 20260905132332 | 71 | 0 | 0.0 | 0.0 | 0.00 | 0.00 | 0.00 | ||
| 20260905131831 | 71 | 0 | 0.0 | 0.0 | 0.00 | 0.00 | 0.00 | ||
| 20260905131332 | 71 | 0 | 0.0 | 0.0 | 0.00 | 0.00 | 0.00 | ||
| 20260905130826 | 72 | 0 | 0.0 | 0.0 | 0.00 | 0.00 | 0.00 | ||
| 20260905130328 | 72 | 0 | 0.0 | 1.0 | 0.00 | 0.00 | 0.00 | ||
| 20260905125833 | 72 | 0 | 0.0 | 1.0 | 0.00 | 0.00 | 0.00 | ||
| 20260905125335 | 72 | 0 | 0.0 | 1.0 | 0.00 | 0.00 | 0.00 | ||
| 20260905124836 | 72 | 0 | 0.0 | 1.0 | 0.00 | 0.00 | 0.00 | ||
| 20260905124338 | 72 | 0 | 0.0 | 0.0 | 0.00 | 0.00 | 0.00 | ||
| 20260905123333 | 73 | 0 | 0.0 | 4.0 | 0.00 | 0.00 | 0.00 | ||
| 20260905122835 | 73 | 0 | 0.0 | 0.0 | 0.00 | 0.00 | 0.00 | ||
| 20260905122335 | 73 | 0 | 0.0 | 0.0 | 0.00 | 0.00 | 0.00 | ||
| 20260905121339 | 73 | 0 | 0.0 | 1.0 | 0.00 | 0.00 | 0.00 | ||
| 20260905120831 | 73 | 0 | 0.0 | 6.0 | 0.00 | 0.00 | 0.00 | ||
| 20260905120331 | 73 | 0 | 1.0 | 6.0 | 0.00 | 0.00 | 0.00 | ||
| 20260905115833 | 73 | 0 | 1.0 | 2.0 | 0.00 | 0.00 | 0.00 | ||
| 20260905115316 | 73 | 0 | 0.0 | 1.0 | 0.00 | 0.00 | 0.00 | ||
| 20260905114820 | 73 | 0 | 0.0 | 0.0 | 0.00 | 0.00 | 0.00 | ||
| 20260905114341 | 73 | 0 | 0.0 | 0.0 | 0.00 | 0.00 | 0.00 | ||
| 20260905113317 | 74 | 0 | 0.0 | 1.0 | 0.00 | 0.00 | 0.00 | ||
| 20260905112820 | 74 | 0 | 0.0 | 2.0 | 0.00 | 0.00 | 0.00 | ||
| 20260905112320 | 74 | 0 | 0.0 | 2.0 | 0.00 | 0.00 | 0.00 | ||
| 20260905111845 | 74 | 135 | 0.0 | 1.0 | 0.00 | 0.00 | 0.00 | ||
| 20260905111314 | 74 | 0 | 0.0 | 1.0 | 0.00 | 0.00 | 0.00 | ||
| 20260905110820 | 74 | 0 | 0.0 | 1.0 | 0.00 | 0.00 | 0.00 | ||
| 20260905110333 | 74 | 0 | 0.0 | 1.0 | 0.00 | 0.00 | 0.00 | ||
| 20260905105834 | 75 | 0 | 0.0 | 1.0 | 0.00 | 0.00 | 0.00 | ||
| 20260905105335 | 75 | 0 | 0.0 | 1.0 | 0.00 | 0.00 | 0.00 | ||
| 20260905104338 | 75 | 0 | 0.0 | 0.0 | 0.00 | 0.00 | 0.00 | ||
| 20260905103334 | 76 | 0 | 0.0 | 1.0 | 0.00 | 0.00 | 0.00 | ||
| 20260905102323 | 76 | 0 | 0.0 | 2.0 | 0.00 | 0.00 | 0.00 | ||
| 20260905101823 | 76 | 353 | 0.0 | 2.0 | 0.00 | 0.00 | 0.00 | ||
| 20260905100820 | 76 | 0 | 0.0 | 2.0 | 0.00 | 0.00 | 0.00 | ||
| 20260905095327 | 76 | 0 | 0.0 | 3.0 | 0.00 | 0.00 | 0.00 | ||
| 20260905094827 | 76 | 359 | 0.0 | 4.0 | 0.00 | 0.00 | 0.00 | ||
| 20260905094330 | 76 | 0 | 1.0 | 4.0 | 0.00 | 0.00 | 0.00 | ||
| 20260905093822 | 76 | 335 | 0.0 | 1.0 | 0.00 | 0.00 | 0.00 | ||
| 20260905092825 | 76 | 0 | 0.0 | 3.0 | 0.00 | 0.00 | 0.00 | ||
| 20260905092329 | 76 | 1 | 0.0 | 3.0 | 0.00 | 0.00 | 0.00 | ||
| 20260905091832 | 76 | 344 | 0.0 | 2.0 | 0.00 | 0.00 | 0.00 | ||
| 20260905091333 | 76 | 0 | 0.0 | 1.0 | 0.00 | 0.00 | 0.00 | ||
| 20260905090825 | 76 | 0 | 0.0 | 1.0 | 0.00 | 0.00 | 0.00 | ||
| 20260905090326 | 77 | 0 | 0.0 | 1.0 | 0.00 | 0.00 | 0.00 | ||
| 20260905085834 | 77 | 0 | 0.0 | 1.0 | 0.00 | 0.00 | 0.00 | ||
| 20260905085337 | 77 | 0 | 0.0 | 1.0 | 0.00 | 0.00 | 0.00 | ||
| 20260905084819 | 77 | 0 | 0.0 | 1.0 | 0.00 | 0.00 | 0.00 | ||
| 20260905084341 | 77 | 0 | 0.0 | 2.0 | 0.00 | 0.00 | 0.00 | ||
| 20260905083337 | 77 | 0 | 0.0 | 2.0 | 0.00 | 0.00 | 0.00 | ||
| 20260905081828 | 77 | 260 | 1.0 | 3.0 | 0.00 | 0.00 | 0.00 | ||
| 20260905080824 | 77 | 0 | 0.0 | 0.0 | 0.00 | 0.00 | 0.00 | ||
| 20260905080329 | 77 | 0 | 0.0 | 1.0 | 0.00 | 0.00 | 0.00 | ||
| 20260905075830 | 78 | 0 | 0.0 | 1.0 | 0.00 | 0.00 | 0.00 | ||
| 20260905075331 | 78 | 0 | 0.0 | 1.0 | 0.00 | 0.00 | 0.00 | ||
| 20260905074832 | 78 | 0 | 0.0 | 0.0 | 0.00 | 0.00 | 0.00 | ||
| 20260905073826 | 78 | 0 | 0.0 | 1.0 | 0.00 | 0.00 | 0.00 | ||
| 20260905073332 | 78 | 0 | 0.0 | 1.0 | 0.00 | 0.00 | 0.00 | ||
| 20260905072835 | 79 | 0 | 0.0 | 1.0 | 0.00 | 0.00 | 0.00 | ||
| 20260905072335 | 79 | 0 | 0.0 | 1.0 | 0.00 | 0.00 | 0.00 | ||
| 20260905071815 | 79 | 0 | 0.0 | 1.0 | 0.00 | 0.00 | 0.00 | ||
| 20260905071339 | 79 | 0 | 0.0 | 2.0 | 0.00 | 0.00 | 0.00 | ||
| 20260905070831 | 79 | 0 | 0.0 | 2.0 | 0.00 | 0.00 | 0.00 | ||
| 20260905065831 | 79 | 0 | 0.0 | 1.0 | 0.00 | 0.00 | 0.00 | ||
| 20260905065332 | 79 | 0 | 0.0 | 0.0 | 0.00 | 0.00 | 0.00 | ||
| 20260905064337 | 80 | 0 | 0.0 | 2.0 | 0.00 | 0.00 | 0.00 | ||
| 20260905063831 | 80 | 0 | 0.0 | 1.0 | 0.00 | 0.00 | 0.00 | ||
| 20260905063335 | 80 | 0 | 0.0 | 2.0 | 0.00 | 0.00 | 0.00 | ||
| 20260905062818 | 80 | 0 | 0.0 | 2.0 | 0.00 | 0.00 | 0.00 |